NOAA NWS Hourly Roundups by Site

Regional Weather Roundup for Seattle, WA

To Select Another Site Choose from List

Select Site:  

000
ASUS46 KSEW 221320
RWRWA

WASHINGTON REGIONAL WEATHER ROUNDUP
NATIONAL WEATHER SERVICE SEATTLE WA
500 AM PST FRI NOV 22 2019

NOTE:"FAIR" INDICATES FEW OR NO CLOUDS BELOW 12,000 FEET WITH NO
SIGNIFICANT WEATHER AND/OR OBSTRUCTIONS TO VISIBILITY.

WAZ507-509-555>559-221400-
SEATTLE, TACOMA, EVERETT, AND VICINITY

CITY           SKY/WX    TMP DP  RH WIND       PRES   REMARKS
EVERETT        FOG       37  36  96 CALM      30.19R VSB 1/4
BOEING FIELD   FOG       38  37  97 CALM      30.20R VSB 1
RENTON         FOG       33  31  92 SE3       30.20R VSB 1/2
SEATAC AIRPORT FOG       38  36  92 CALM      30.19R VSB 1/4
JBLM-MCCHORD   FOG       32  32 100 CALM      30.19R VSB 3/8
PUYALLUP       FAIR      27  27 100 CALM      30.18R
BREMERTON      CLEAR     26  26 100 CALM      30.18R
JBLM-FT LEWIS  FOG       28  28 100 SE6       30.18R VSB 1/4
TACOMA NARROWS FOG       37  37 100 CALM      30.19R VSB 1/4
$$

WAZ001-503-506-510-514-515-221400-
NORTH INTERIOR

CITY           SKY/WX    TMP DP  RH WIND       PRES   REMARKS
BELLINGHAM     CLEAR     31  27  85 CALM      30.19R
FRIDAY HARBOR  MOCLDY    38  37  97 CALM      30.20S FOG
EASTSOUND      CLOUDY    43  41  93 CALM      30.18F
PORT ANGELES   MOCLDY    33  32  96 S7        30.20R
EDIZ HOOK      CLOUDY    40  38  93 CALM      30.21R
PORT TOWNSEND  MOCLDY    27  25  93 CALM      30.20R
NAS WHIDBEY    FOG       38  34  85 E3        30.24S VSB 1/8
ARLINGTON      FOG       27  25  93 CALM      30.21R VSB 3/4
BURLINGTON     CLEAR     32  30  93 CALM      30.21R
$$

WAZ020-022-039-040-504-511-512-221400-
SOUTHWEST INTERIOR

CITY           SKY/WX    TMP DP  RH WIND       PRES   REMARKS
SHELTON        FOG       31  30  96 W3        30.17R VSB 1/4
OLYMPIA        FOG       30  30 100 S3        30.20R VSB 1/4
CHEHALIS       FOG       32  32 100 CALM      30.21R VSB 1/4
KELSO          FOG       32  32 100 N3        30.21R VSB 1/2
VANCOUVER      PTCLDY    29  26  89 CALM      30.18R
SCAPPOOSE, OR  CLEAR     28  26  92 CALM      30.19R FOG
PORTLAND, OR   FOG       32  30  92 W5        30.19R VSB 1/2
$$

WAZ021-516-517-221400-
WASHINGTON COAST

CITY           SKY/WX    TMP DP  RH WIND       PRES   REMARKS
FORKS          CLOUDY    33  31  92 E3        30.18S
HOQUIAM        CLOUDY    30  30 100 E5        30.21R FOG
ASTORIA, OR    CLEAR     31  30  96 CALM      30.18R
$$

WAZ019-023-024-040-567>569-221400-
CASCADE MOUNTAINS AND COLUMBIA GORGE

CITY           SKY/WX    TMP DP  RH WIND       PRES   REMARKS
STAMPEDE PASS  CLEAR     29  21  72 E3        30.09R
TROUTDALE, OR  CLEAR     39  30  70 E9        30.18R
HOOD RIVER, OR SUNNY     27  27 100 CALM      30.24R
THE DALLES, OR CLEAR     27  24  89 E3        30.25R
$$

WAZ026-027-041>044-520-521-221400-
EAST SLOPES

CITY           SKY/WX    TMP DP  RH WIND       PRES   REMARKS
OMAK           CLEAR     22  17  81 CALM      30.21S
WENATCHEE      CLEAR     25  22  88 S5        30.20R
ELLENSBURG     CLEAR     18  13  80 CALM      30.18R
YAKIMA         CLEAR     16  12  84 W6        30.22R
SUNNYSIDE ARPT SUNNY     19  18  95 CALM      30.22
YAKIMA TC      FAIR      19  16  86 CALM      30.19R
$$

WAZ028-034-035-221400-
COLUMBIA BASIN

CITY           SKY/WX    TMP DP  RH WIND       PRES   REMARKS
EPHRATA        CLEAR     22  20  92 N6        30.20R
MOSES LAKE     CLEAR     21  16  81 N6        30.22R
PASCO          FOG       27  24  89 CALM      30.25R VSB 1/4
RICHLAND ARPT  FOG       24  24  98 CALM      30.25S VSB 1/4
HERMISTON, OR  CLEAR     22  18  85 CALM      30.22R
$$

WAZ036>038-221400-
NORTHEAST WASHINGTON

CITY           SKY/WX    TMP DP  RH WIND       PRES   REMARKS
SPOKANE GEIGER PTCLDY    24  21  88 NE3       30.17R FOG
SPOKANE FELTS  FLURRIES  27  24  89 CALM      30.21R
FAIRCHILD AFB  CLEAR     22  22 100 N5        30.16R FOG
COEURDALENE,ID FOG       26  26 100 SE3       30.19R VSB 1/4
DEER PARK      CLEAR     19  16  88 CALM      30.18R
$$

WAZ029>033-221400-
SOUTHEAST WASHINGTON

CITY           SKY/WX    TMP DP  RH WIND       PRES   REMARKS
PULLMAN        CLEAR     28  26  92 NE7       30.17R
LEWISTON, ID   FOG       28  25  88 CALM      30.20S VSB 1/4
WALLA WALLA    CLEAR     26  24  92 CALM      30.18S
PENDLETON, OR  CLEAR     25  22  88 S6        30.17R
$$


 

View Past Reports for Seattle, WA.

Products Courtesy of NOAA-NWS
NWS Information Parsing Script by Ken True at Saratoga Weather - Script by SE Lincoln Weather.